RORVIK / RYUM current weather conditions

sailwx.info

Wind from 090 at 5 knots

Air temperature -0.0° C
Dewpoint -1.0° C

Last reported at 2015-Mar-30 20:20 UTC.
Time now 2015-Mar-31 00:23 UTC

Location: N 64°50' E 011°09'.
View on Google Maps.

See reports from other nearby stations

  
Tides and Currents Weather Stations Pressure Air Temp Water Temp Dewpoint Dewpoint Depression Visibility Wind Speed Wind Dir Waves Ship Positions
date/time (UTC)wind fromknots sea level pressurealtimeterstation pressurevisibilityair tempwater tempwave heightnotes
2015-Mar-30 20:20 090 5 -0.0
2015-Mar-30 19:50 090 5 -0.0
2015-Mar-30 19:20 090 5 -0.0
2015-Mar-30 18:50 090 4 -0.0
2015-Mar-30 18:20 100 5 5.4 1.0
2015-Mar-30 17:50 100 4 5.4 2.0
2015-Mar-30 17:20 120 5 3.0
2015-Mar-30 16:50 150 5 5.4 4.0
2015-Mar-30 16:20 210 5 5.4 5.0
2015-Mar-30 15:50 230 8 5.4 5.0 Showers in the vicinity.
2015-Mar-30 15:20 220 8 5.4 5.0 Showers in the vicinity.
2015-Mar-30 14:50 210 8 5.4 5.0
2015-Mar-30 14:20 220 8 5.4 4.0
2015-Mar-30 13:50 220 8 5.4 4.0
2015-Mar-30 13:20 220 8 5.4 4.0 Showers in the vicinity.
2015-Mar-30 12:50 230 13 5.4 3.0 Light rain showers.
2015-Mar-30 12:20 220 9 5.4 4.0 Showers in the vicinity.
2015-Mar-30 11:50 210 7 5.4 4.0
2015-Mar-30 11:20 230 6 5.4 3.0
2015-Mar-30 10:50 230 7 5.4 3.0
2015-Mar-30 08:50 260 13 5.4 3.0
2015-Mar-30 07:50 250 11 5.4 5.0
2015-Mar-30 06:20 250 7 5.4 4.0
2015-Mar-30 05:20 200 6 5.4 2.0 Showers in the vicinity.
2015-Mar-30 04:20 290 3 5.4 2.0 Showers in the vicinity.
2015-Mar-30 03:50 5.4 2.0
2015-Mar-29 19:50 160 7 5.4 4.0
2015-Mar-29 19:20 160 7 5.4 4.0
2015-Mar-29 18:50 190 8 5.4 5.0
2015-Mar-29 18:20 200 9 5.4 5.0
2015-Mar-29 17:50 200 9 5.4 4.0
2015-Mar-29 17:20 200 8 5.4 4.0 Showers in the vicinity.
2015-Mar-29 16:50 200 9 5.4 5.0 Showers in the vicinity.
2015-Mar-29 16:20 170 8 5.4 5.0 Light rain.
2015-Mar-29 15:50 150 9 5.4 5.0
2015-Mar-29 15:20 160 9 5.4 5.0 Showers in the vicinity.
2015-Mar-29 14:50 160 6 5.4 6.0
2015-Mar-29 14:20 160 5 5.4 6.0
2015-Mar-29 13:50 210 7 5.4 6.0 Light rain.
2015-Mar-29 13:20 190 7 5.4 6.0
2015-Mar-29 12:50 190 8 5.4 5.0 Light rain.
2015-Mar-29 12:20 160 10 5.4 7.0